Hourly Data Report for March 14, 2018

MIRAMICHI RCS
NEW BRUNSWICK

47°00'34.000" N
65°27'54.000" W
33.00 m
8100989
71744
ACQ

Download Data

Hourly Data (March 2018)
Hourly Data Report for March 14, 2018
TIME
LST
Temp Definition
°C
Dew Point Definition
°C
Rel Hum Definition
%
Precip. Amount Definition
mm

Wind Dir Definition
10's deg

Wind Spd Definition
km/h
Visibility Definition
km
Stn Press Definition
kPa
Hmdx Definition


Wind Chill Definition


Weather Definition


00:00 -0.5 -1.2 95 0.6 6 47   99.54   -9 LegendNANA
01:00 -0.7 -1.5 95 1.1 5 48   99.43   -9 LegendNANA
02:00 -1.0 -1.8 94 1.2 5 48   99.26   -9 LegendNANA
03:00 -1.1 -1.9 95 1.4 5 50   99.09   -10 LegendNANA
04:00 -1.0 -1.9 93 0.9 5 50   98.92   -10 LegendNANA
05:00 -0.9 -2.0 92 1.2 5 48   98.89   -9 LegendNANA
06:00 -0.9 -1.8 93 1.0 5 46   98.85   -9 LegendNANA
07:00 -1.0 -1.8 94 1.9 5 42   98.77   -9 LegendNANA
08:00 -0.9 -1.7 94 1.0 5 40   98.68   -9 LegendNANA
09:00 -0.8 -1.8 93 1.1 5 39   98.57   -8 LegendNANA
10:00 -0.7 -1.7 93 0.6 5 38   98.51   -8 LegendNANA
11:00 -0.6 -1.6 93 0.9 5 36   98.40   -8 LegendNANA
12:00 -0.8 -1.7 93 0.8 4 31   98.26   -8 LegendNANA
13:00 -0.6 -1.6 93 0.9 4 26   98.12   -7 LegendNANA
14:00 -0.6 -1.4 94 1.2 4 19   98.02   -6 LegendNANA
15:00 -0.6 -1.3 95 1.4 3 12   97.95   -5 LegendNANA
16:00 -0.5 -1.2 95 2.7 27 7   97.90   -3 LegendNANA
17:00 -0.5 -1.0 96 0.5 24 12   97.90   -4 LegendNANA
18:00 -0.7 -1.3 96 0.0 24 13   97.93   -5 LegendNANA
19:00 -1.1 -1.7 96 0.2 23 16   98.02   -6 LegendNANA
20:00 -1.2 -1.9 95 0.0 23 21   98.13   -7 LegendNANA
21:00 -1.2 -2.0 94 0.0 22 22   98.25   -7 LegendNANA
22:00 -0.9 -1.8 94 0.0 21 21   98.32   -7 LegendNANA
23:00 -0.4 -1.0 96 0.0 21 18   98.36   -5 LegendNANA

Notes on Data Quality.

Legend

  • E = Estimated
  • M = Missing
  • NA = Not Available*
  • [empty] = Indicates an unobserved value
Date modified: